"Timestamp","TZ","WindDir_Mean (deg)","WindSpd_Mean (km/h)","WindSpd_Min (km/h)","WindSpd_Max (km/h)","Temp_Mean (deg)","RH_Mean (%)","MSLP_Mean (hPa)","Rain_Acc (mm)","Rain_Intensity (mm/h)","Hail_Acc (hits/cm2)","Hail_Intensity (hits/cm2hr)","Solar_Mean (W/m2)"
2018/11/08 00:00:00.004,n,23,4.32,3.6,4.68,24.6,70.6,1008.22,0.1,0,0,0,0.026131
2018/11/08 00:01:00.000,n,346,3.6,3.24,3.96,24.6,70.4,1008.22,0.1,0,0,0,0.027885
2018/11/08 00:02:00.000,n,268,4.68,3.96,5.4,24.6,71,1008.22,0.1,0,0,0,0.027008
2018/11/08 00:03:00.000,n,344,5.4,4.68,6.48,24.6,70.9,1008.22,0.1,0,0,0,0.027008
2018/11/08 00:04:00.006,n,237,0.72,0.36,1.08,24.7,71.4,1008.22,0.1,0,0,0,0.027008
2018/11/08 00:05:00.003,n,1,7.2,6.48,7.92,24.7,70.5,1008.22,0.1,0,0,0,0.020905
2018/11/08 00:06:00.000,n,42,7.2,4.32,9.36,24.7,70.1,1008.22,0.1,0,0,0,0.023537
2018/11/08 00:07:00.000,n,14,7.92,7.2,9,24.6,70.1,1008.22,0.1,0,0,0,0.020905
2018/11/08 00:08:00.011,n,131,1.8,1.08,3.96,24.6,70.1,1008.22,0.1,0,0,0,0.028763
2018/11/08 00:09:00.010,n,2,4.32,3.24,4.68,24.6,70.4,1008.22,0.1,0,0,0,0.023537
2018/11/08 00:10:00.000,n,31,1.44,0.72,2.52,24.6,70.3,1008.22,0.1,0,0,0,0.021782
2018/11/08 00:11:00.000,n,319,1.08,0.36,1.8,24.6,70.5,1008.22,0.1,0,0,0,0.022659
2018/11/08 00:12:00.002,n,0,4.32,3.6,5.04,24.6,70.5,1008.22,0.1,0,0,0,0.026131
2018/11/08 00:13:00.000,n,277,6.48,4.68,7.92,24.6,70.6,1008.22,0.1,0,0,0,0.025253
2018/11/08 00:14:00.000,n,308,3.96,3.24,4.68,24.6,70.8,1008.22,0.1,0,0,0,0.024376
2018/11/08 00:15:00.009,n,341,5.76,5.04,6.84,24.6,70.7,1008.12,0.1,0,0,0,0.031357
2018/11/08 00:16:00.006,n,319,4.32,3.6,5.76,24.6,71.3,1008.12,0.1,0,0,0,0.029602
2018/11/08 00:17:00.003,n,15,2.52,1.08,5.04,24.6,70.8,1008.12,0.1,0,0,0,0.021782
2018/11/08 00:18:00.017,n,314,3.24,2.16,3.96,24.6,70.6,1008.12,0.1,0,0,0,0.026131
2018/11/08 00:19:00.000,n,222,2.88,0.36,5.04,24.6,70.9,1008.12,0.1,0,0,0,0.022659
2018/11/08 00:20:00.000,n,277,4.32,3.96,4.68,24.6,70.7,1008.12,0.1,0,0,0,0.023537
2018/11/08 00:21:00.000,n,353,3.96,2.16,5.76,24.6,71.1,1008.12,0.1,0,0,0,0.027885
2018/11/08 00:22:00.008,n,309,3.96,2.52,5.04,24.6,71.9,1008.22,0.1,0,0,0,0.023537
2018/11/08 00:23:00.004,n,226,2.52,1.44,3.96,24.7,70.8,1008.22,0.1,0,0,0,0.027885
2018/11/08 00:24:00.001,n,240,6.84,5.76,7.2,24.6,70.3,1008.22,0.1,0,0,0,0.023537
2018/11/08 00:25:00.000,n,83,0.72,0.36,1.08,24.6,70.4,1008.22,0.1,0,0,0,0.024376
2018/11/08 00:26:00.013,n,249,5.4,4.68,5.76,24.6,70.8,1008.22,0.1,0,0,0,0.020905
2018/11/08 00:27:00.012,n,252,4.68,4.32,5.04,24.6,70.7,1008.32,0.1,0,0,0,0.029602
2018/11/08 00:28:00.000,n,219,6.12,5.76,6.84,24.5,70.5,1008.32,0.1,0,0,0,0.022659
2018/11/08 00:29:00.000,n,223,6.12,5.04,7.2,24.5,70.5,1008.32,0.1,0,0,0,0.027008
2018/11/08 00:30:00.004,n,183,7.2,6.48,7.56,24.5,70.7,1008.42,0.1,0,0,0,0.027008
2018/11/08 00:31:00.002,n,167,6.12,4.68,8.28,24.5,70.9,1008.42,0.1,0,0,0,0.031357
2018/11/08 00:32:00.000,n,184,11.16,10.8,12.24,24.5,71,1008.42,0.1,0,0,0,0.022659
2018/11/08 00:33:00.000,n,187,9.72,7.56,10.8,24.4,71.1,1008.42,0.1,0,0,0,0.025253
2018/11/08 00:34:00.011,n,182,6.48,5.04,7.92,24.4,71.1,1008.42,0.1,0,0,0,0.027885
2018/11/08 00:35:00.008,n,191,6.12,5.76,6.48,24.4,71.2,1008.42,0.1,0,0,0,0.024376
2018/11/08 00:36:00.005,n,184,7.56,6.84,8.64,24.4,71.2,1008.32,0.1,0,0,0,0.027008
2018/11/08 00:37:00.000,n,178,6.48,6.12,6.48,24.4,71.3,1008.32,0.1,0,0,0,0.024376
2018/11/08 00:38:00.000,n,176,6.48,5.4,7.2,24.4,71.3,1008.32,0.1,0,0,0,0.022659
2018/11/08 00:39:00.000,n,164,7.92,7.2,8.64,24.4,71.3,1008.32,0.1,0,0,0,0.022659
2018/11/08 00:40:00.000,n,172,6.84,5.76,7.92,24.4,71.3,1008.32,0.1,0,0,0,0.026131
2018/11/08 00:41:00.007,n,190,8.28,6.12,9.72,24.4,71.3,1008.42,0.1,0,0,0,0.020905
2018/11/08 00:42:00.004,n,172,7.92,5.04,9.72,24.4,71.4,1008.42,0.1,0,0,0,0.027885
2018/11/08 00:43:00.001,n,192,10.08,7.92,10.8,24.4,71.5,1008.42,0.1,0,0,0,0.027008
2018/11/08 00:44:00.000,n,193,7.92,7.2,8.64,24.4,71.6,1008.42,0.1,0,0,0,0.023537
2018/11/08 00:45:00.012,n,80,4.32,1.08,7.56,24.4,71.7,1008.32,0.1,0,0,0,0.022659
2018/11/08 00:46:00.000,n,198,4.68,2.88,7.2,24.4,71.9,1008.32,0.1,0,0,0,0.022659
2018/11/08 00:47:00.000,n,150,3.24,1.08,4.68,24.3,72.1,1008.32,0.1,0,0,0,0.025253
2018/11/08 00:48:00.004,n,174,10.440002,8.64,11.52,24.3,72.4,1008.32,0.1,0,0,0,0.026131
2018/11/08 00:49:00.001,n,161,7.2,6.48,7.56,24.3,72.6,1008.32,0.1,0,0,0,0.027885
2018/11/08 00:50:00.000,n,174,10.08,9,10.8,24.2,72.9,1008.32,0.1,0,0,0,0.020905
2018/11/08 00:51:00.000,n,177,3.6,1.08,5.76,24.2,73.1,1008.42,0.1,0,0,0,0.024376
2018/11/08 00:52:00.010,n,150,7.92,7.56,8.28,24.2,73.4,1008.42,0.1,0,0,0,0.026131
2018/11/08 00:53:00.006,n,162,5.4,3.6,7.2,24.1,73.5,1008.42,0.1,0,0,0,0.025253
2018/11/08 00:54:00.003,n,160,5.76,3.6,6.84,24.1,73.6,1008.32,0.1,0,0,0,0.023537
2018/11/08 00:55:00.000,n,129,8.64,7.92,9.36,24.1,73.8,1008.32,0.1,0,0,0,0.021782
2018/11/08 00:56:00.000,n,155,5.76,5.04,6.48,24.1,73.9,1008.32,0.1,0,0,0,0.020027
2018/11/08 00:57:00.000,n,126,2.16,1.44,2.52,24,73.9,1008.32,0.1,0,0,0,0.026131
2018/11/08 00:58:00.000,n,120,2.16,0.36,5.04,24,74,1008.32,0.1,0,0,0,0.021782
2018/11/08 00:59:00.006,n,165,4.32,2.16,6.48,24,74.1,1008.32,0.1,0,0,0,0.019188
2018/11/08 01:00:00.003,n,146,3.24,1.08,4.32,24,74,1008.42,0.1,0,0,0,0.020905
2018/11/08 01:01:00.000,n,177,5.04,3.96,6.12,24,74.2,1008.42,0.1,0,0,0,0.020027
2018/11/08 01:02:00.015,n,130,1.8,1.44,2.16,24,74.2,1008.42,0.1,0,0,0,0.020027
2018/11/08 01:04:00.000,n,228,3.96,3.6,5.04,24,74.2,1008.42,0.1,0,0,0,0.029602
2018/11/08 01:05:00.000,n,189,6.48,5.76,6.84,24,74.3,1008.42,0.1,0,0,0,0.030441
2018/11/08 01:06:00.002,n,204,6.84,5.76,7.56,24,74.3,1008.42,0.1,0,0,0,0.030441
2018/11/08 01:07:00.000,n,210,4.68,4.32,5.04,24,74.4,1008.42,0.1,0,0,0,0.037422
2018/11/08 01:08:00.000,n,164,2.52,2.16,3.24,24,74.4,1008.32,0.1,0,0,0,0.030441
2018/11/08 01:09:00.010,n,264,1.44,0.72,1.8,24,74.4,1008.32,0.1,0,0,0,0.029602
2018/11/08 01:10:00.006,n,249,5.4,4.68,5.76,24,74.4,1008.32,0.1,0,0,0,0.037422
2018/11/08 01:11:00.003,n,270,5.76,2.52,7.92,24,75.2,1008.42,0.1,0,0,0,0.032234
2018/11/08 01:12:00.000,n,240,7.92,6.84,9.72,24,74.8,1008.42,0.1,0,0,0,0.031319
2018/11/08 01:13:00.000,n,268,7.56,6.48,8.28,24,74.8,1008.52,0.1,0,0,0,0.032234
2018/11/08 01:14:00.000,n,269,5.04,4.68,5.4,23.9,74.9,1008.52,0.1,0,0,0,0.031319
2018/11/08 01:15:00.000,n,270,5.4,4.32,6.12,23.9,75.1,1008.52,0.1,0,0,0,0.028725
2018/11/08 01:16:00.007,n,268,5.04,4.68,5.4,23.9,75.4,1008.52,0.1,0,0,0,0.030441
2018/11/08 01:17:00.005,n,258,3.96,3.24,4.68,23.9,75.4,1008.42,0.1,0,0,0,0.029602
2018/11/08 01:18:00.003,n,262,5.04,4.68,5.4,23.9,75.5,1008.42,0.1,0,0,0,0.025253
2018/11/08 01:19:00.000,n,263,5.04,4.68,5.4,23.8,75.7,1008.42,0.1,0,0,0,0.024376
2018/11/08 01:20:00.014,n,230,4.68,2.88,5.76,23.9,76.7,1008.42,0.1,0,0,0,0.032234
2018/11/08 01:21:00.011,n,258,6.12,5.76,6.84,23.9,76,1008.42,0.1,0,0,0,0.027008
2018/11/08 01:22:00.000,n,255,5.4,5.04,5.76,23.8,76,1008.42,0.1,0,0,0,0.031319
2018/11/08 01:23:00.000,n,242,5.04,4.68,5.4,23.8,76.1,1008.42,0.1,0,0,0,0.024376
2018/11/08 01:24:00.003,n,229,4.68,3.96,5.04,23.8,76.2,1008.42,0.1,0,0,0,0.030441
2018/11/08 01:25:00.000,n,253,4.68,3.96,5.4,23.7,76.3,1008.42,0.1,0,0,0,0.026131
2018/11/08 01:26:00.000,n,256,4.32,3.96,4.68,23.7,76.4,1008.42,0.1,0,0,0,0.027008
2018/11/08 01:27:00.000,n,252,6.84,6.48,7.2,23.7,76.4,1008.42,0.1,0,0,0,0.027008
2018/11/08 01:28:00.009,n,250,9.36,9.36,9.72,23.7,76.3,1008.42,0.1,0,0,0,0.026131
2018/11/08 01:29:00.006,n,263,8.28,7.2,9,23.6,76.4,1008.32,0.1,0,0,0,0.031319
2018/11/08 01:30:00.004,n,258,7.56,6.48,8.64,23.6,76.5,1008.32,0.1,0,0,0,0.033073
2018/11/08 01:31:00.002,n,257,6.48,5.76,7.2,23.6,77,1008.22,0.1,0,0,0,0.023499
2018/11/08 01:32:00.000,n,228,8.28,7.92,8.64,23.6,77.1,1008.22,0.1,0,0,0,0.026131
2018/11/08 01:33:00.000,n,246,4.68,3.24,7.2,23.5,77.7,1008.22,0.1,0,0,0,0.026131
2018/11/08 01:34:00.000,n,261,6.84,5.76,8.64,23.5,77.7,1008.22,0.1,0,0,0,0.023499
2018/11/08 01:35:00.008,n,256,7.92,7.2,8.28,23.5,77.4,1008.22,0.1,0,0,0,0.028725
2018/11/08 01:36:00.005,n,243,6.48,5.76,6.84,23.4,77.6,1008.22,0.1,0,0,0,0.020027
2018/11/08 01:37:00.002,n,257,7.92,7.2,8.28,23.4,77.7,1008.22,0.1,0,0,0,0.022659
2018/11/08 01:38:00.000,n,251,7.92,7.56,8.64,23.4,77.8,1008.32,0.1,0,0,0,0.024376
2018/11/08 01:39:00.013,n,269,7.56,6.48,8.28,23.4,77.8,1008.32,0.1,0,0,0,0.020905
2018/11/08 01:40:00.000,n,251,5.76,4.32,7.56,23.4,77.9,1008.32,0.1,0,0,0,0.023499
2018/11/08 01:41:00.000,n,257,9.36,7.92,10.08,23.4,77.9,1008.32,0.1,0,0,0,0.023499
2018/11/08 01:42:00.005,n,255,9.36,7.2,10.08,23.3,77.9,1008.32,0.1,0,0,0,0.020905
2018/11/08 01:43:00.001,n,253,7.2,6.48,7.92,23.3,78.4,1008.32,0.1,0,0,0,0.020027
2018/11/08 01:44:00.000,n,256,9,8.28,9,23.4,78,1008.32,0.1,0,0,0,0.021782
2018/11/08 01:45:00.000,n,247,4.68,3.96,5.04,23.4,78.2,1008.42,0.1,0,0,0,0.021782
2018/11/08 01:46:00.008,n,221,5.76,5.4,5.76,23.4,78.2,1008.42,0.1,0,0,0,0.01915
2018/11/08 01:47:00.005,n,256,3.96,1.44,5.76,23.4,78.1,1008.42,0.1,0,0,0,0.020027
2018/11/08 01:48:00.004,n,280,3.6,2.88,4.32,23.4,78.1,1008.42,0.1,0,0,0,0.026093
2018/11/08 01:49:00.000,n,260,6.84,6.12,7.56,23.4,78.1,1008.32,0.1,0,0,0,0.032234
2018/11/08 01:50:00.000,n,258,5.76,5.04,6.48,23.4,78.1,1008.32,0.1,0,0,0,0.033951
2018/11/08 01:51:00.000,n,259,4.68,3.96,4.68,23.4,78.1,1008.32,0.1,0,0,0,0.024376
2018/11/08 01:52:00.006,n,229,4.68,3.96,5.04,23.4,78.5,1008.32,0.1,0,0,0,0.028725
2018/11/08 01:53:00.004,n,241,4.32,3.96,5.04,23.4,78.1,1008.32,0.1,0,0,0,0.029602
2018/11/08 01:54:00.001,n,256,6.84,6.12,8.64,23.4,78.1,1008.32,0.1,0,0,0,0.033073
2018/11/08 01:55:00.000,n,254,6.48,4.32,7.56,23.4,78.1,1008.42,0.1,0,0,0,0.027847
2018/11/08 01:56:00.013,n,270,8.64,8.28,9,23.4,78.1,1008.42,0.1,0,0,0,0.033073
2018/11/08 01:57:00.009,n,274,8.64,7.56,9.36,23.4,77.8,1008.42,0.1,0,0,0,0.028725
2018/11/08 01:58:00.000,n,267,5.76,4.68,6.48,23.4,77.8,1008.42,0.1,0,0,0,0.026093
2018/11/08 01:59:00.004,n,258,7.2,6.48,7.56,23.4,77.8,1008.32,0.1,0,0,0,0.030441
2018/11/08 02:00:00.000,n,257,3.6,3.24,4.68,23.4,77.8,1008.42,0.1,0,0,0,0.027847
2018/11/08 02:01:00.000,n,263,4.68,3.96,5.04,23.4,77.8,1008.42,0.1,0,0,0,0.031357
2018/11/08 02:02:00.000,n,263,12.24,11.16,12.96,23.4,77.6,1008.42,0.1,0,0,0,0.026093
2018/11/08 02:03:00.008,n,261,8.28,7.2,9,23.4,77.7,1008.42,0.1,0,0,0,0.027847
2018/11/08 02:04:00.005,n,264,8.28,6.84,9.36,23.5,77.7,1008.42,0.1,0,0,0,0.026093
2018/11/08 02:05:00.002,n,255,7.92,5.4,9,23.5,77.6,1008.52,0.1,0,0,0,0.027008
2018/11/08 02:06:00.016,n,253,7.2,6.84,7.92,23.5,77.5,1008.52,0.1,0,0,0,0.022659
2018/11/08 02:07:00.000,n,261,7.2,6.48,7.56,23.5,77.3,1008.52,0.1,0,0,0,0.025253
2018/11/08 02:08:00.000,n,276,10.8,8.28,11.88,23.5,77.4,1008.62,0.1,0,0,0,0.023499
2018/11/08 02:09:00.000,n,280,13.32,11.52,14.76,23.5,77.3,1008.62,0.1,0,0,0,0.027008
2018/11/08 02:10:00.004,n,253,9,7.92,9.72,23.5,77.3,1008.62,0.1,0,0,0,0.025253
2018/11/08 02:11:00.001,n,252,9,8.64,10.440002,23.5,77.3,1008.62,0.1,0,0,0,0.028725
2018/11/08 02:12:00.000,n,264,10.08,9.72,10.8,23.5,77.1,1008.62,0.1,0,0,0,0.023499
2018/11/08 02:13:00.012,n,246,7.92,7.2,9,23.5,77.2,1008.62,0.1,0,0,0,0.021782
2018/11/08 02:14:00.008,n,263,11.52,9.72,13.32,23.5,77.4,1008.62,0.1,0,0,0,0.023499
2018/11/08 02:15:00.005,n,283,8.64,6.84,12.24,23.5,77.6,1008.72,0.1,0,0,0,0.022659
2018/11/08 02:16:00.000,n,257,7.92,5.76,10.08,23.5,77.3,1008.72,0.1,0,0,0,0.023499
2018/11/08 02:17:00.000,n,248,7.56,6.48,7.92,23.5,76.9,1008.72,0.1,0,0,0,0.025253
2018/11/08 02:18:00.000,n,254,6.12,5.04,6.84,23.5,76.9,1008.72,0.1,0,0,0,0.028725
2018/11/08 02:19:00.000,n,256,6.84,4.68,9,23.5,77,1008.82,0.1,0,0,0,0.026093
2018/11/08 02:21:00.000,n,256,3.6,1.08,5.04,23.5,76.9,1008.82,0.1,0,0,0,0.022621
2018/11/08 02:22:00.011,n,259,7.56,6.12,9.72,23.5,76.7,1008.82,0.1,0,0,0,0.022621
2018/11/08 02:23:00.008,n,266,9,7.92,10.440002,23.5,76.7,1008.82,0.1,0,0,0,0.021744
2018/11/08 02:24:00.005,n,255,9.72,9,10.8,23.5,76.7,1008.82,0.1,0,0,0,0.02697
2018/11/08 02:25:00.000,n,257,6.48,5.4,7.2,23.5,76.9,1008.82,0.1,0,0,0,0.027847
2018/11/08 02:26:00.000,n,259,9.36,8.28,10.440002,23.5,76.8,1008.92,0.1,0,0,0,0.021744
2018/11/08 02:27:00.000,n,251,7.2,6.84,7.92,23.5,76.7,1008.92,0.1,0,0,0,0.02697
2018/11/08 02:28:00.000,n,262,8.64,8.28,9.72,23.5,76.7,1008.92,0.1,0,0,0,0.019989
2018/11/08 02:29:00.006,n,265,7.56,7.56,7.92,23.5,76.6,1008.92,0.1,0,0,0,0.02346
2018/11/08 02:30:00.003,n,276,5.76,5.4,6.12,23.5,76.7,1008.92,0.1,0,0,0,0.027847
2018/11/08 02:31:00.000,n,258,4.68,4.32,5.04,23.5,76.7,1008.92,0.1,0,0,0,0.022621
2018/11/08 02:32:00.014,n,255,5.04,4.32,5.76,23.5,76.7,1009.02,0.1,0,0,0,0.029564
2018/11/08 02:33:00.012,n,352,1.08,0.72,1.44,23.5,76.9,1009.02,0.1,0,0,0,0.019989
2018/11/08 02:34:00.000,n,300,2.88,1.8,3.6,23.6,77.1,1009.02,0.1,0,0,0,0.02697
2018/11/08 02:35:00.000,n,229,5.04,4.68,5.76,23.6,77,1009.02,0.1,0,0,0,0.02346
2018/11/08 02:36:00.004,n,201,4.32,3.6,5.4,23.6,76.7,1009.02,0.1,0,0,0,0.029564
2018/11/08 02:37:00.000,n,200,3.96,3.6,4.32,23.6,76.7,1009.12,0.1,0,0,0,0.02346
2018/11/08 02:38:00.000,n,240,1.44,0.36,3.6,23.6,76.7,1009.12,0.1,0,0,0,0.022621
2018/11/08 02:39:00.000,n,197,1.8,1.44,2.88,23.6,76.6,1009.12,0.1,0,0,0,0.02697
2018/11/08 02:40:00.009,n,133,3.24,1.44,4.68,23.6,76.6,1009.12,0.1,0,0,0,0.02346
2018/11/08 02:41:00.006,n,160,4.68,4.32,6.12,23.6,76.6,1009.02,0.1,0,0,0,0.025215
2018/11/08 02:42:00.003,n,159,0.72,0.36,1.8,23.6,76.5,1009.02,0.1,0,0,0,0.028687
2018/11/08 02:43:00.000,n,145,1.08,0.36,2.52,23.7,76.6,1009.02,0.1,0,0,0,0.022621
2018/11/08 02:44:00.000,n,136,3.24,2.88,3.24,23.7,76.7,1009.02,0.1,0,0,0,0.026093
2018/11/08 02:45:00.000,n,124,3.96,3.24,5.04,23.7,76.9,1009.02,0.1,0,0,0,0.028687
2018/11/08 02:46:00.000,n,145,5.4,5.04,5.76,23.7,76.9,1009.02,0.1,0,0,0,0.02346
2018/11/08 02:47:00.007,n,150,9.72,9,10.440002,23.7,76.8,1009.02,0.1,0,0,0,0.026093
2018/11/08 02:48:00.004,n,165,7.92,7.56,8.28,23.7,77,1009.02,0.1,0,0,0,0.02346
2018/11/08 02:49:00.001,n,144,3.6,3.24,4.32,23.7,77.1,1009.02,0.1,0,0,0,0.02697
2018/11/08 02:50:00.000,n,171,3.96,3.6,5.04,23.7,77.1,1009.02,0.1,0,0,0,0.025215
2018/11/08 02:51:00.013,n,135,3.24,2.52,3.6,23.7,77.1,1009.12,0.1,0,0,0,0.03479
2018/11/08 02:52:00.000,n,198,3.96,3.6,4.68,23.6,77.2,1009.12,0.1,0,0,0,0.030441
2018/11/08 02:53:00.000,n,184,3.6,2.88,3.6,23.6,77.1,1009.12,0.1,0,0,0,0.030441
2018/11/08 02:54:00.005,n,188,4.32,3.6,5.4,23.6,77.1,1009.12,0.1,0,0,0,0.030441
2018/11/08 02:55:00.001,n,173,5.4,4.32,6.48,23.6,77,1009.12,0.1,0,0,0,0.033913
2018/11/08 02:56:00.000,n,189,7.2,6.48,7.92,23.6,76.8,1009.22,0.1,0,0,0,0.033913
2018/11/08 02:57:00.000,n,178,9.36,8.64,10.08,23.6,76.6,1009.22,0.1,0,0,0,0.029564
2018/11/08 02:58:00.010,n,189,11.52,10.08,12.96,23.6,76.2,1009.22,0.1,0,0,0,0.028687
2018/11/08 02:59:00.006,n,144,6.84,5.4,8.28,23.6,76,1009.22,0.1,0,0,0,0.033913
2018/11/08 03:00:00.003,n,193,5.4,5.04,6.12,23.7,75.8,1009.22,0.1,0,0,0,0.027847
2018/11/08 03:01:00.001,n,148,7.56,6.48,9.72,23.7,75.7,1009.12,0.1,0,0,0,0.031319
2018/11/08 03:02:00.000,n,180,11.16,10.08,12.96,23.7,75.4,1009.12,0.1,0,0,0,0.033035
2018/11/08 03:03:00.000,n,159,7.56,4.32,8.28,23.7,75.1,1009.12,0.1,0,0,0,0.030441
2018/11/08 03:04:00.000,n,196,8.28,7.2,9,23.7,74.7,1009.12,0.1,0,0,0,0.02697
2018/11/08 03:05:00.007,n,196,10.8,9.36,12.96,23.7,74.2,1009.12,0.1,0,0,0,0.031319
2018/11/08 03:06:00.004,n,196,9.36,7.2,11.16,23.7,74,1009.12,0.1,0,0,0,0.030441
2018/11/08 03:07:00.001,n,155,5.4,2.16,8.64,23.8,73.8,1009.02,0.1,0,0,0,0.027847
2018/11/08 03:08:00.000,n,205,8.28,7.92,9,23.8,73.4,1009.02,0.1,0,0,0,0.029564
2018/11/08 03:09:00.013,n,211,7.92,6.12,10.08,23.8,73.1,1009.02,0.1,0,0,0,0.029564
2018/11/08 03:10:00.000,n,152,3.96,3.6,5.04,23.9,73.1,1009.12,0.1,0,0,0,0.03479
2018/11/08 03:11:00.000,n,179,10.8,9.36,12.96,23.9,72.8,1009.02,0.1,0,0,0,0.026093
2018/11/08 03:12:00.004,n,268,3.6,1.8,4.68,23.9,72.7,1009.12,0.1,0,0,0,0.025215
2018/11/08 03:13:00.000,n,265,6.84,5.76,8.28,23.9,72.7,1009.22,0.1,0,0,0,0.028687
2018/11/08 03:14:00.000,n,252,6.12,5.4,6.84,23.9,72.2,1009.22,0.1,0,0,0,0.032196
2018/11/08 03:15:00.000,n,222,1.8,0.72,3.6,23.9,72.1,1009.32,0.1,0,0,0,0.031319
2018/11/08 03:16:00.009,n,258,10.8,9.36,12.24,23.9,71.9,1009.32,0.1,0,0,0,0.027847
2018/11/08 03:17:00.006,n,269,8.28,6.48,10.08,24,71.9,1009.32,0.1,0,0,0,0.026093
2018/11/08 03:18:00.003,n,194,2.52,2.16,2.52,24,71.9,1009.32,0.1,0,0,0,0.027847
2018/11/08 03:19:00.000,n,241,5.76,4.68,6.48,24,72.1,1009.32,0.1,0,0,0,0.036545
2018/11/08 03:20:00.000,n,273,3.24,1.08,5.76,24,72.8,1009.32,0.1,0,0,0,0.027847
2018/11/08 03:21:00.000,n,260,10.08,8.64,11.16,24.1,72.2,1009.32,0.1,0,0,0,0.028687
2018/11/08 03:22:00.000,n,272,6.48,5.76,7.56,24.1,72.4,1009.32,0.1,0,0,0,0.033035
2018/11/08 03:23:00.008,n,262,7.92,4.32,10.08,24.1,72.4,1009.32,0.1,0,0,0,0.02697
2018/11/08 03:24:00.004,n,242,3.24,1.08,7.56,24.1,72.4,1009.42,0.1,0,0,0,0.031319
2018/11/08 03:25:00.001,n,260,10.440002,9.72,11.52,24.1,72.4,1009.42,0.1,0,0,0,0.02697
2018/11/08 03:26:00.000,n,273,9.36,7.92,11.52,24.1,72.4,1009.42,0.1,0,0,0,0.030441
2018/11/08 03:27:00.012,n,242,11.52,7.92,12.6,24.1,72.4,1009.52,0.1,0,0,0,0.032196
2018/11/08 03:28:00.000,n,245,8.28,7.56,8.64,24.1,72.5,1009.52,0.1,0,0,0,0.027847
2018/11/08 03:29:00.000,n,269,11.16,9.36,12.24,24.1,72.5,1009.52,0.1,0,0,0,0.027847
2018/11/08 03:30:00.004,n,244,6.48,5.4,7.2,24.1,72.7,1009.52,0.1,0,0,0,0.033035
2018/11/08 03:31:00.000,n,249,6.84,6.12,7.92,24.1,72.6,1009.52,0.1,0,0,0,0.027847
2018/11/08 03:32:00.000,n,248,2.16,1.44,3.6,24.1,72.9,1009.52,0.1,0,0,0,0.029564
2018/11/08 03:33:00.011,n,270,7.92,6.48,8.64,24.1,73.1,1009.52,0.1,0,0,0,0.032196
2018/11/08 03:34:00.008,n,260,6.48,5.04,6.84,24.1,72.9,1009.52,0.1,0,0,0,0.030441
2018/11/08 03:35:00.005,n,236,10.08,9.36,11.16,24.1,72.7,1009.52,0.1,0,0,0,0.03479
2018/11/08 03:36:00.002,n,258,9.72,9,11.16,24.1,72.7,1009.52,0.1,0,0,0,0.029564
2018/11/08 03:37:00.000,n,264,7.56,7.2,8.28,24.1,72.7,1009.52,0.1,0,0,0,0.030441
2018/11/08 03:38:00.000,n,229,10.08,8.64,11.16,24.1,72.8,1009.62,0.1,0,0,0,0.033913
2018/11/08 03:39:00.000,n,268,9,8.64,9.36,24.1,72.8,1009.62,0.1,0,0,0,0.036545
2018/11/08 03:40:00.000,n,243,9.36,7.2,11.16,24.1,72.7,1009.72,0.1,0,0,0,0.028687
2018/11/08 03:41:00.006,n,266,8.28,7.2,9.36,24.1,72.8,1009.72,0.1,0,0,0,0.030441
2018/11/08 03:42:00.003,n,265,8.28,6.48,9.36,24.1,73.1,1009.72,0.1,0,0,0,0.031319
2018/11/08 03:43:00.000,n,242,5.76,5.76,6.12,24.1,72.9,1009.72,0.1,0,0,0,0.031319
2018/11/08 03:44:00.014,n,249,6.48,4.68,8.28,24.1,72.6,1009.82,0.1,0,0,0,0.031319
2018/11/08 03:45:00.012,n,253,10.440002,9.36,12.96,24.1,72.5,1009.82,0.1,0,0,0,0.033035
2018/11/08 03:46:00.000,n,287,5.4,4.68,6.84,24.1,72.6,1009.82,0.1,0,0,0,0.03479
2018/11/08 03:47:00.000,n,252,9.72,9.36,10.08,24.1,72.6,1009.82,0.1,0,0,0,0.03479
2018/11/08 03:48:00.003,n,248,8.28,6.12,9.72,24.1,72.5,1009.82,0.1,0,0,0,0.040855
2018/11/08 03:49:00.000,n,247,5.76,4.68,6.48,24.1,72.5,1009.82,0.1,0,0,0,0.035667
2018/11/08 03:50:00.000,n,266,8.64,8.28,9.36,24.1,72.4,1009.82,0.1,0,0,0,0.036545
2018/11/08 03:51:00.011,n,256,8.28,6.84,10.08,24.1,72.9,1009.82,0.1,0,0,0,0.035667
2018/11/08 03:52:00.007,n,265,9,8.28,9.72,24.2,72.4,1009.82,0.1,0,0,0,0.033035
2018/11/08 03:54:00.003,n,263,11.16,10.440002,11.88,24.2,72.1,1009.82,0.1,0,0,0,0.024376
2018/11/08 03:55:00.000,n,272,12.6,11.52,14.04,24.2,72.1,1009.92,0.1,0,0,0,0.022621
2018/11/08 03:56:00.000,n,247,5.4,4.68,7.2,24.2,72.2,1009.92,0.1,0,0,0,0.025215
2018/11/08 03:57:00.000,n,254,8.28,6.12,10.08,24.2,72.1,1010.02,0.1,0,0,0,0.02346
2018/11/08 03:58:00.007,n,265,13.32,11.16,15.12,24.2,71.9,1010.02,0.1,0,0,0,0.027809
2018/11/08 03:59:00.004,n,262,8.28,6.12,11.16,24.2,72,1010.12,0.1,0,0,0,0.026093
2018/11/08 04:00:00.001,n,258,8.28,7.2,9.36,24.2,72.1,1010.12,0.1,0,0,0,0.027809
2018/11/08 04:01:00.000,n,266,9.72,8.28,10.440002,24.2,72.3,1010.12,0.11,0.3,0,0,0.029564
2018/11/08 04:02:00.014,n,251,9.36,9.36,9.72,24.2,72.4,1010.12,0.11,0,0,0,0.024376
2018/11/08 04:03:00.011,n,250,7.56,6.12,8.64,24.2,72.8,1010.12,0.11,0,0,0,0.022621
2018/11/08 04:04:00.000,n,269,9.36,8.28,10.8,24.2,72.9,1010.12,0.11,0,0,0,0.026093
2018/11/08 04:05:00.000,n,243,6.12,5.76,6.48,24.1,73.1,1010.12,0.11,0,0,0,0.021744
2018/11/08 04:06:00.003,n,255,2.16,1.44,2.16,24.1,73.7,1010.12,0.11,0.2,0,0,0.021744
2018/11/08 04:07:00.001,n,263,5.4,4.68,6.12,24.1,73.9,1010.02,0.11,0,0,0,0.021744
2018/11/08 04:08:00.000,n,260,5.4,5.04,5.76,24.1,74,1010.02,0.11,0,0,0,0.024376
2018/11/08 04:09:00.000,n,240,6.48,5.04,7.92,24,74.3,1010.02,0.12,0.1,0,0,0.026093
2018/11/08 04:10:00.010,n,269,6.12,5.4,6.84,23.9,74.3,1010.02,0.12,0.2,0,0,0.021744
2018/11/08 04:11:00.008,n,263,9,7.92,10.8,23.9,74.4,1010.02,0.12,0,0,0,0.022621
2018/11/08 04:12:00.005,n,261,10.08,9.36,11.16,23.8,74.2,1010.12,0.12,0,0,0,0.021744
2018/11/08 04:13:00.000,n,255,8.28,7.92,9,23.8,74.7,1010.12,0.12,0,0,0,0.025215
2018/11/08 04:14:00.000,n,260,10.08,9,10.440002,23.7,74.3,1010.12,0.12,0,0,0,0.020866
2018/11/08 04:15:00.000,n,268,18,17.64,19.8,23.6,73.4,1010.22,0.12,0,0,0,0.02697
2018/11/08 04:16:00.000,n,268,6.84,3.96,9,23.6,73.5,1010.22,0.12,0,0,0,0.02697
2018/11/08 04:17:00.005,n,248,8.28,4.68,11.88,23.5,72.8,1010.22,0.12,0,0,0,0.031319
2018/11/08 04:18:00.002,n,244,6.84,6.12,8.28,23.5,72.8,1010.22,0.12,0,0,0,0.028687
2018/11/08 04:19:00.000,n,207,9.36,6.48,11.52,23.5,72.4,1010.22,0.12,0,0,0,0.027847
2018/11/08 04:20:00.013,n,260,6.84,4.68,9.36,23.4,71.8,1010.32,0.12,0,0,0,0.02697
2018/11/08 04:21:00.010,n,259,7.56,6.48,8.28,23.4,71.8,1010.32,0.12,0,0,0,0.026093
2018/11/08 04:22:00.000,n,254,7.2,3.96,10.8,23.4,71.5,1010.32,0.12,0,0,0,0.026093
2018/11/08 04:23:00.000,n,258,7.92,6.48,8.64,23.5,71.6,1010.32,0.12,0,0,0,0.020866
2018/11/08 04:24:00.002,n,249,5.76,5.04,6.12,23.4,70.9,1010.32,0.12,0,0,0,0.019989
2018/11/08 04:25:00.000,n,258,5.04,3.6,6.84,23.4,71.3,1010.32,0.12,0,0,0,0.025253
2018/11/08 04:26:00.000,n,279,10.08,9.36,11.88,23.4,70.8,1010.42,0.12,0,0,0,0.018234
2018/11/08 04:27:00.000,n,262,6.12,5.4,6.84,23.4,71.1,1010.42,0.12,0,0,0,0.034828
2018/11/08 04:28:00.007,n,249,9,4.32,11.16,23.4,70.4,1010.42,0.12,0,0,0,0.037422
2018/11/08 04:29:00.005,n,248,11.16,8.64,12.24,23.4,70.5,1010.52,0.12,0,0,0,0.028725
2018/11/08 04:30:00.002,n,259,6.12,5.4,6.48,23.5,70.4,1010.52,0.12,0,0,0,0.029602
2018/11/08 04:31:00.000,n,272,9.36,4.68,13.68,23.4,68.2,1010.52,0.12,0,0,0,0.036545
2018/11/08 04:32:00.000,n,255,9.72,8.64,12.24,23.4,68.3,1010.62,0.12,0,0,0,0.033951
2018/11/08 04:33:00.000,n,229,13.68,9.72,16.56,23.5,66.9,1010.62,0.12,0,0,0,0.032196
2018/11/08 04:34:00.000,n,260,11.16,9,12.24,23.5,67.4,1010.62,0.12,0,0,0,0.036545
2018/11/08 04:35:00.007,n,251,10.8,7.2,13.32,23.6,65.199996,1010.62,0.12,0,0,0,0.033073
2018/11/08 04:36:00.003,n,273,13.68,13.32,14.4,23.6,64.5,1010.62,0.12,0,0,0,0.036545
2018/11/08 04:37:00.001,n,290,9,6.84,11.16,23.7,65.4,1010.62,0.12,0,0,0,0.040894
2018/11/08 04:38:00.015,n,197,10.08,6.12,15.12,23.7,63.5,1010.62,0.12,0,0,0,0.048714
2018/11/08 04:39:00.012,n,261,14.4,11.88,15.12,23.8,63.1,1010.62,0.12,0,0,0,0.060043
2018/11/08 04:40:00.000,n,255,15.48,9,17.28,23.8,62.7,1010.62,0.12,0,0,0,0.093117
2018/11/08 04:41:00.000,n,248,6.84,6.48,7.2,23.9,62.6,1010.62,0.12,0,0,0,0.136604
2018/11/08 04:42:00.003,n,267,12.24,10.440002,14.4,23.9,62.7,1010.62,0.12,0,0,0,0.1931
2018/11/08 04:43:00.000,n,224,10.8,9.36,11.88,24,62.1,1010.62,0.12,0,0,0,0.242653
2018/11/08 04:44:00.000,n,239,10.440002,5.4,12.6,24,62.1,1010.62,0.12,0,0,0,0.251312
2018/11/08 04:45:00.007,n,271,7.2,4.68,10.440002,24,61.8,1010.62,0.12,0,0,0,0.247879
2018/11/08 04:46:00.003,n,256,11.16,10.440002,12.6,24,61.3,1010.62,0.12,0,0,0,0.212212
2018/11/08 04:47:00.001,n,257,12.6,11.16,14.4,24,61.6,1010.72,0.12,0,0,0,0.162697
2018/11/08 04:48:00.016,n,239,10.440002,4.32,12.24,24,61.3,1010.82,0.12,0,0,0,0.148735
2018/11/08 04:49:00.000,n,253,12.96,11.52,14.4,24,59.7,1010.82,0.12,0,0,0,0.140953